owner,sensor,date,latitude,longitude,vertical_datum,sea_water_practical_salinity,qcFlag 
SCCF RECON,ioos:station:SCCF:11:1,2011-08-01T00:00:00Z,26.4679,-82.0631,1.442,33.05,1111122 
SCCF RECON,ioos:station:SCCF:11:1,2011-08-01T01:00:00Z,26.4679,-82.0631,1.36,33.09,1111122 
SCCF RECON,ioos:station:SCCF:11:1,2011-08-01T02:00:00Z,26.4679,-82.0631,1.37,32.65,1111122 
SCCF RECON,ioos:station:SCCF:11:1,2011-08-01T03:00:00Z,26.4679,-82.0631,1.54,33.1,1111122 
SCCF RECON,ioos:station:SCCF:11:1,2011-08-01T04:00:00Z,26.4679,-82.0631,1.739,32.66,1111122 
SCCF RECON,ioos:station:SCCF:11:1,2011-08-01T05:00:00Z,26.4679,-82.0631,1.88,32.74,1111122 
SCCF RECON,ioos:station:SCCF:11:1,2011-08-01T06:00:00Z,26.4679,-82.0631,1.98,32.96,1111122 
SCCF RECON,ioos:station:SCCF:11:1,2011-08-01T07:00:00Z,26.4679,-82.0631,2.063,33.02,1111122 
SCCF RECON,ioos:station:SCCF:11:1,2011-08-01T08:00:00Z,26.4679,-82.0631,2.05,33.59,1111122 
SCCF RECON,ioos:station:SCCF:11:1,2011-08-01T09:00:00Z,26.4679,-82.0631,1.94,32.68,1111122 
SCCF RECON,ioos:station:SCCF:11:1,2011-08-01T10:00:00Z,26.4679,-82.0631,1.797,32.79,1111122 
SCCF RECON,ioos:station:SCCF:11:1,2011-08-01T11:00:00Z,26.4679,-82.0631,1.71,32.85,1111122 
SCCF RECON,ioos:station:SCCF:11:1,2011-08-01T12:00:00Z,26.4679,-82.0631,1.64,32.83,1111122 
SCCF RECON,ioos:station:SCCF:11:1,2011-08-01T13:00:00Z,26.4679,-82.0631,1.61,32.84,1111122 
SCCF RECON,ioos:station:SCCF:11:1,2011-08-01T14:00:00Z,26.4679,-82.0631,1.7,32.88,1111122 
SCCF RECON,ioos:station:SCCF:11:1,2011-08-01T15:00:00Z,26.4679,-82.0631,1.88,33.29,1111122 
SCCF RECON,ioos:station:SCCF:11:1,2011-08-01T16:00:00Z,26.4679,-82.0631,2.031,32.89,1111122 
SCCF RECON,ioos:station:SCCF:11:1,2011-08-01T17:00:00Z,26.4679,-82.0631,2.145,33.52,1111122 
SCCF RECON,ioos:station:SCCF:11:1,2011-08-01T18:00:00Z,26.4679,-82.0631,2.22,34.05,1111122 
SCCF RECON,ioos:station:SCCF:11:1,2011-08-01T19:00:00Z,26.4679,-82.0631,2.22,33.93,1111122 
SCCF RECON,ioos:station:SCCF:11:1,2011-08-01T20:00:00Z,26.4679,-82.0631,2.134,33.12,1111122 
SCCF RECON,ioos:station:SCCF:11:1,2011-08-01T21:00:00Z,26.4679,-82.0631,1.99,33.08,1111122 
SCCF RECON,ioos:station:SCCF:11:1,2011-08-01T22:00:00Z,26.4679,-82.0631,1.821,33.03,1111122 
SCCF RECON,ioos:station:SCCF:11:1,2011-08-01T23:00:00Z,26.4679,-82.0631,1.67,33.04,1111122 
SCCF RECON,ioos:station:SCCF:11:1,2011-08-02T00:00:00Z,26.4679,-82.0631,1.517,33.09,1111122 
SCCF RECON,ioos:station:SCCF:11:1,2011-08-02T01:00:00Z,26.4679,-82.0631,1.4,33.13,1111122 
SCCF RECON,ioos:station:SCCF:11:1,2011-08-02T02:00:00Z,26.4679,-82.0631,1.354,33.13,1111122 
SCCF RECON,ioos:station:SCCF:11:1,2011-08-02T03:00:00Z,26.4679,-82.0631,1.43,33.05,1111122 
SCCF RECON,ioos:station:SCCF:11:1,2011-08-02T04:00:00Z,26.4679,-82.0631,1.62,32.84,1111122 
SCCF RECON,ioos:station:SCCF:11:1,2011-08-02T05:00:00Z,26.4679,-82.0631,1.79,32.83,1111122 
SCCF RECON,ioos:station:SCCF:11:1,2011-08-02T06:00:00Z,26.4679,-82.0631,1.91,32.94,1111122 
SCCF RECON,ioos:station:SCCF:11:1,2011-08-02T07:00:00Z,26.4679,-82.0631,2.0,33.17,1111122 
SCCF RECON,ioos:station:SCCF:11:1,2011-08-02T08:00:00Z,26.4679,-82.0631,2.03,33.73,1111122 
SCCF RECON,ioos:station:SCCF:11:1,2011-08-02T09:00:00Z,26.4679,-82.0631,1.97,33.14,1111122 
SCCF RECON,ioos:station:SCCF:11:1,2011-08-02T10:00:00Z,26.4679,-82.0631,1.82,32.88,1111122 
SCCF RECON,ioos:station:SCCF:11:1,2011-08-02T11:00:00Z,26.4679,-82.0631,1.71,32.93,1111122 
SCCF RECON,ioos:station:SCCF:11:1,2011-08-02T12:00:00Z,26.4679,-82.0631,1.619,32.96,1111122 
SCCF RECON,ioos:station:SCCF:11:1,2011-08-02T13:00:00Z,26.4679,-82.0631,1.53,32.95,1111122 
SCCF RECON,ioos:station:SCCF:11:1,2011-08-02T14:00:00Z,26.4679,-82.0631,1.5,32.95,1111122 
SCCF RECON,ioos:station:SCCF:11:1,2011-08-02T15:00:00Z,26.4679,-82.0631,1.61,32.97,1111122 
SCCF RECON,ioos:station:SCCF:11:1,2011-08-02T16:00:00Z,26.4679,-82.0631,1.804,32.88,1111122 
SCCF RECON,ioos:station:SCCF:11:1,2011-08-02T17:00:00Z,26.4679,-82.0631,1.963,32.64,1111122 
SCCF RECON,ioos:station:SCCF:11:1,2011-08-02T18:00:00Z,26.4679,-82.0631,2.061,33.31,1111122 
SCCF RECON,ioos:station:SCCF:11:1,2011-08-02T19:00:00Z,26.4679,-82.0631,2.11,33.47,1111122 
SCCF RECON,ioos:station:SCCF:11:1,2011-08-02T20:00:00Z,26.4679,-82.0631,2.1,33.41,1111122 
SCCF RECON,ioos:station:SCCF:11:1,2011-08-02T21:00:00Z,26.4679,-82.0631,2.02,33.09,1111122 
SCCF RECON,ioos:station:SCCF:11:1,2011-08-02T22:00:00Z,26.4679,-82.0631,1.9,32.92,1111122 
SCCF RECON,ioos:station:SCCF:11:1,2011-08-02T23:00:00Z,26.4679,-82.0631,1.76,32.94,1111122 
SCCF RECON,ioos:station:SCCF:11:1,2011-08-03T00:00:00Z,26.4679,-82.0631,1.64,32.98,1111122 
SCCF RECON,ioos:station:SCCF:11:1,2011-08-03T01:00:00Z,26.4679,-82.0631,1.51,33.02,1111122 
SCCF RECON,ioos:station:SCCF:11:1,2011-08-03T02:00:00Z,26.4679,-82.0631,1.421,33.03,1111122 
SCCF RECON,ioos:station:SCCF:11:1,2011-08-03T03:00:00Z,26.4679,-82.0631,1.43,32.91,1111122 
SCCF RECON,ioos:station:SCCF:11:1,2011-08-03T04:00:00Z,26.4679,-82.0631,1.571,33.04,1111122 
SCCF RECON,ioos:station:SCCF:11:1,2011-08-03T05:00:00Z,26.4679,-82.0631,1.78,33.08,1111122 
SCCF RECON,ioos:station:SCCF:11:1,2011-08-03T06:00:00Z,26.4679,-82.0631,1.917,33.14,1111122 
SCCF RECON,ioos:station:SCCF:11:1,2011-08-03T07:00:00Z,26.4679,-82.0631,2.01,33.33,1111122 
SCCF RECON,ioos:station:SCCF:11:1,2011-08-03T08:00:00Z,26.4679,-82.0631,2.06,33.41,1111122 
SCCF RECON,ioos:station:SCCF:11:1,2011-08-03T09:00:00Z,26.4679,-82.0631,2.04,33.5,1111122 
SCCF RECON,ioos:station:SCCF:11:1,2011-08-03T10:00:00Z,26.4679,-82.0631,1.921,33.03,1111122 
SCCF RECON,ioos:station:SCCF:11:1,2011-08-03T11:00:00Z,26.4679,-82.0631,1.8,32.97,1111122 
SCCF RECON,ioos:station:SCCF:11:1,2011-08-03T12:00:00Z,26.4679,-82.0631,1.69,33.02,1111122 
SCCF RECON,ioos:station:SCCF:11:1,2011-08-03T13:00:00Z,26.4679,-82.0631,1.58,33.01,1111122 
SCCF RECON,ioos:station:SCCF:11:1,2011-08-03T14:00:00Z,26.4679,-82.0631,1.5,33.01,1111122 
SCCF RECON,ioos:station:SCCF:11:1,2011-08-03T15:00:00Z,26.4679,-82.0631,1.498,32.97,1111122 
SCCF RECON,ioos:station:SCCF:11:1,2011-08-03T16:00:00Z,26.4679,-82.0631,1.6,33.07,1111122 
SCCF RECON,ioos:station:SCCF:11:1,2011-08-03T17:00:00Z,26.4679,-82.0631,1.751,33.04,1111122 
SCCF RECON,ioos:station:SCCF:11:1,2011-08-03T18:00:00Z,26.4679,-82.0631,1.88,33.14,1111122 
SCCF RECON,ioos:station:SCCF:11:1,2011-08-03T19:00:00Z,26.4679,-82.0631,1.959,33.11,1111122 
SCCF RECON,ioos:station:SCCF:11:1,2011-08-03T20:00:00Z,26.4679,-82.0631,2.019,33.28,1111122 
SCCF RECON,ioos:station:SCCF:11:1,2011-08-03T21:00:00Z,26.4679,-82.0631,2.035,33.23,1111122 
SCCF RECON,ioos:station:SCCF:11:1,2011-08-03T22:00:00Z,26.4679,-82.0631,1.973,32.93,1111122 
SCCF RECON,ioos:station:SCCF:11:1,2011-08-03T23:00:00Z,26.4679,-82.0631,1.87,32.95,1111122 
SCCF RECON,ioos:station:SCCF:11:1,2011-08-04T00:00:00Z,26.4679,-82.0631,1.73,33.0,1111122 
SCCF RECON,ioos:station:SCCF:11:1,2011-08-04T01:00:00Z,26.4679,-82.0631,1.63,33.06,1111122 
SCCF RECON,ioos:station:SCCF:11:1,2011-08-04T02:00:00Z,26.4679,-82.0631,1.547,33.09,1111122 
SCCF RECON,ioos:station:SCCF:11:1,2011-08-04T03:00:00Z,26.4679,-82.0631,1.5,33.06,1111122 
SCCF RECON,ioos:station:SCCF:11:1,2011-08-04T04:00:00Z,26.4679,-82.0631,1.55,32.94,1111122 
SCCF RECON,ioos:station:SCCF:11:1,2011-08-04T05:00:00Z,26.4679,-82.0631,1.718,33.08,1111122 
SCCF RECON,ioos:station:SCCF:11:1,2011-08-04T06:00:00Z,26.4679,-82.0631,1.89,33.06,1111122 
SCCF RECON,ioos:station:SCCF:11:1,2011-08-04T07:00:00Z,26.4679,-82.0631,2.01,33.25,1111122 
SCCF RECON,ioos:station:SCCF:11:1,2011-08-04T08:00:00Z,26.4679,-82.0631,2.08,33.24,1111122 
SCCF RECON,ioos:station:SCCF:11:1,2011-08-04T09:00:00Z,26.4679,-82.0631,2.12,33.36,1111122 
SCCF RECON,ioos:station:SCCF:11:1,2011-08-04T10:00:00Z,26.4679,-82.0631,2.07,32.96,1111122 
SCCF RECON,ioos:station:SCCF:11:1,2011-08-04T11:00:00Z,26.4679,-82.0631,1.94,33.05,1111122 
SCCF RECON,ioos:station:SCCF:11:1,2011-08-04T12:00:00Z,26.4679,-82.0631,1.817,33.08,1111122 
SCCF RECON,ioos:station:SCCF:11:1,2011-08-04T13:00:00Z,26.4679,-82.0631,1.71,33.08,1111122 
SCCF RECON,ioos:station:SCCF:11:1,2011-08-04T14:00:00Z,26.4679,-82.0631,1.59,33.06,1111122 
SCCF RECON,ioos:station:SCCF:11:1,2011-08-04T15:00:00Z,26.4679,-82.0631,1.51,33.07,1111122 
SCCF RECON,ioos:station:SCCF:11:1,2011-08-04T16:00:00Z,26.4679,-82.0631,1.49,33.05,1111122 
SCCF RECON,ioos:station:SCCF:11:1,2011-08-04T17:00:00Z,26.4679,-82.0631,1.59,33.07,1111122 
SCCF RECON,ioos:station:SCCF:11:1,2011-08-04T18:00:00Z,26.4679,-82.0631,1.74,33.05,1111122 
SCCF RECON,ioos:station:SCCF:11:1,2011-08-04T19:00:00Z,26.4679,-82.0631,1.85,33.09,1111122 
SCCF RECON,ioos:station:SCCF:11:1,2011-08-04T20:00:00Z,26.4679,-82.0631,1.899,33.16,1111122 
SCCF RECON,ioos:station:SCCF:11:1,2011-08-04T21:00:00Z,26.4679,-82.0631,1.937,33.16,1111122 
SCCF RECON,ioos:station:SCCF:11:1,2011-08-04T22:00:00Z,26.4679,-82.0631,1.93,33.4,1111122 
SCCF RECON,ioos:station:SCCF:11:1,2011-08-04T23:00:00Z,26.4679,-82.0631,1.9,33.23,1111122 
SCCF RECON,ioos:station:SCCF:11:1,2011-08-05T00:00:00Z,26.4679,-82.0631,1.813,32.96,1111122 
SCCF RECON,ioos:station:SCCF:11:1,2011-08-05T01:00:00Z,26.4679,-82.0631,1.742,32.96,1111122 
SCCF RECON,ioos:station:SCCF:11:1,2011-08-05T02:00:00Z,26.4679,-82.0631,1.664,33.0,1111122 
SCCF RECON,ioos:station:SCCF:11:1,2011-08-05T03:00:00Z,26.4679,-82.0631,1.598,33.03,1111122 
SCCF RECON,ioos:station:SCCF:11:1,2011-08-05T04:00:00Z,26.4679,-82.0631,1.596,33.06,1111122 
SCCF RECON,ioos:station:SCCF:11:1,2011-08-05T05:00:00Z,26.4679,-82.0631,1.65,33.03,1111122 
SCCF RECON,ioos:station:SCCF:11:1,2011-08-05T06:00:00Z,26.4679,-82.0631,1.81,33.26,1111122 
SCCF RECON,ioos:station:SCCF:11:1,2011-08-05T07:00:00Z,26.4679,-82.0631,1.96,32.65,1111122 
SCCF RECON,ioos:station:SCCF:11:1,2011-08-05T08:00:00Z,26.4679,-82.0631,2.06,32.99,1111122 
SCCF RECON,ioos:station:SCCF:11:1,2011-08-05T09:00:00Z,26.4679,-82.0631,2.08,33.52,1111122 
SCCF RECON,ioos:station:SCCF:11:1,2011-08-05T10:00:00Z,26.4679,-82.0631,2.08,33.44,1111122 
SCCF RECON,ioos:station:SCCF:11:1,2011-08-05T11:00:00Z,26.4679,-82.0631,2.01,32.81,1111122 
SCCF RECON,ioos:station:SCCF:11:1,2011-08-05T12:00:00Z,26.4679,-82.0631,1.923,32.91,1111122 
SCCF RECON,ioos:station:SCCF:11:1,2011-08-05T13:00:00Z,26.4679,-82.0631,1.79,32.99,1111122 
SCCF RECON,ioos:station:SCCF:11:1,2011-08-05T14:00:00Z,26.4679,-82.0631,1.653,33.06,1111122 
SCCF RECON,ioos:station:SCCF:11:1,2011-08-05T15:00:00Z,26.4679,-82.0631,1.56,33.07,1111122 
SCCF RECON,ioos:station:SCCF:11:1,2011-08-05T16:00:00Z,26.4679,-82.0631,1.48,33.12,1111122 
SCCF RECON,ioos:station:SCCF:11:1,2011-08-05T17:00:00Z,26.4679,-82.0631,1.43,33.08,1111122 
SCCF RECON,ioos:station:SCCF:11:1,2011-08-05T18:00:00Z,26.4679,-82.0631,1.477,33.09,1111122 
SCCF RECON,ioos:station:SCCF:11:1,2011-08-05T19:00:00Z,26.4679,-82.0631,1.598,33.08,1111122 
SCCF RECON,ioos:station:SCCF:11:1,2011-08-05T20:00:00Z,26.4679,-82.0631,1.73,33.08,1111122 
SCCF RECON,ioos:station:SCCF:11:1,2011-08-05T21:00:00Z,26.4679,-82.0631,1.815,32.92,1111122 
SCCF RECON,ioos:station:SCCF:11:1,2011-08-05T22:00:00Z,26.4679,-82.0631,1.84,32.92,1111122 
SCCF RECON,ioos:station:SCCF:11:1,2011-08-05T23:00:00Z,26.4679,-82.0631,1.869,32.94,1111122 
SCCF RECON,ioos:station:SCCF:11:1,2011-08-06T00:00:00Z,26.4679,-82.0631,1.863,32.92,1111122 
SCCF RECON,ioos:station:SCCF:11:1,2011-08-06T01:00:00Z,26.4679,-82.0631,1.84,32.8,1111122 
SCCF RECON,ioos:station:SCCF:11:1,2011-08-06T02:00:00Z,26.4679,-82.0631,1.79,32.75,1111122 
SCCF RECON,ioos:station:SCCF:11:1,2011-08-06T03:00:00Z,26.4679,-82.0631,1.722,32.9,1111122 
SCCF RECON,ioos:station:SCCF:11:1,2011-08-06T04:00:00Z,26.4679,-82.0631,1.71,32.8,1111122 
SCCF RECON,ioos:station:SCCF:11:1,2011-08-06T05:00:00Z,26.4679,-82.0631,1.69,32.91,1111122 
SCCF RECON,ioos:station:SCCF:11:1,2011-08-06T06:00:00Z,26.4679,-82.0631,1.75,32.88,1111122 
SCCF RECON,ioos:station:SCCF:11:1,2011-08-06T07:00:00Z,26.4679,-82.0631,1.859,32.67,1111122 
SCCF RECON,ioos:station:SCCF:11:1,2011-08-06T08:00:00Z,26.4679,-82.0631,1.96,32.44,1111122 
SCCF RECON,ioos:station:SCCF:11:1,2011-08-06T09:00:00Z,26.4679,-82.0631,2.032,32.4,1111122 
SCCF RECON,ioos:station:SCCF:11:1,2011-08-06T10:00:00Z,26.4679,-82.0631,2.08,32.33,1111122 
SCCF RECON,ioos:station:SCCF:11:1,2011-08-06T11:00:00Z,26.4679,-82.0631,2.12,32.48,1111122 
SCCF RECON,ioos:station:SCCF:11:1,2011-08-06T12:00:00Z,26.4679,-82.0631,2.059,32.4,1111122 
SCCF RECON,ioos:station:SCCF:11:1,2011-08-06T13:00:00Z,26.4679,-82.0631,1.921,32.46,1111122 
SCCF RECON,ioos:station:SCCF:11:1,2011-08-06T14:00:00Z,26.4679,-82.0631,1.8,32.76,1111122 
SCCF RECON,ioos:station:SCCF:11:1,2011-08-06T15:00:00Z,26.4679,-82.0631,1.681,32.83,1111122 
SCCF RECON,ioos:station:SCCF:11:1,2011-08-06T16:00:00Z,26.4679,-82.0631,1.57,32.96,1111122 
SCCF RECON,ioos:station:SCCF:11:1,2011-08-06T17:00:00Z,26.4679,-82.0631,1.47,32.98,1111122 
SCCF RECON,ioos:station:SCCF:11:1,2011-08-06T18:00:00Z,26.4679,-82.0631,1.41,32.81,1111122 
SCCF RECON,ioos:station:SCCF:11:1,2011-08-06T19:00:00Z,26.4679,-82.0631,1.422,32.9,1111122 
SCCF RECON,ioos:station:SCCF:11:1,2011-08-06T20:00:00Z,26.4679,-82.0631,1.5,32.92,1111122 
SCCF RECON,ioos:station:SCCF:11:1,2011-08-06T21:00:00Z,26.4679,-82.0631,1.61,32.88,1111122 
SCCF RECON,ioos:station:SCCF:11:1,2011-08-06T22:00:00Z,26.4679,-82.0631,1.702,32.85,1111122 
SCCF RECON,ioos:station:SCCF:11:1,2011-08-06T23:00:00Z,26.4679,-82.0631,1.77,32.64,1111122 
SCCF RECON,ioos:station:SCCF:11:1,2011-08-07T00:00:00Z,26.4679,-82.0631,1.828,32.68,1111122 
SCCF RECON,ioos:station:SCCF:11:1,2011-08-07T01:00:00Z,26.4679,-82.0631,1.85,32.76,1111122 
SCCF RECON,ioos:station:SCCF:11:1,2011-08-07T02:00:00Z,26.4679,-82.0631,1.82,32.74,1111122 
SCCF RECON,ioos:station:SCCF:11:1,2011-08-07T03:00:00Z,26.4679,-82.0631,1.78,32.69,1111122 
SCCF RECON,ioos:station:SCCF:11:1,2011-08-07T04:00:00Z,26.4679,-82.0631,1.75,32.68,1111122 
SCCF RECON,ioos:station:SCCF:11:1,2011-08-07T05:00:00Z,26.4679,-82.0631,1.75,32.71,1111122 
SCCF RECON,ioos:station:SCCF:11:1,2011-08-07T06:00:00Z,26.4679,-82.0631,1.743,32.71,1111122 
SCCF RECON,ioos:station:SCCF:11:1,2011-08-07T07:00:00Z,26.4679,-82.0631,1.795,32.68,1111122 
SCCF RECON,ioos:station:SCCF:11:1,2011-08-07T08:00:00Z,26.4679,-82.0631,1.86,32.64,1111122 
SCCF RECON,ioos:station:SCCF:11:1,2011-08-07T09:00:00Z,26.4679,-82.0631,1.94,32.49,1111122 
SCCF RECON,ioos:station:SCCF:11:1,2011-08-07T10:00:00Z,26.4679,-82.0631,2.04,31.67,1111122 
SCCF RECON,ioos:station:SCCF:11:1,2011-08-07T11:00:00Z,26.4679,-82.0631,2.08,31.69,1111122 
SCCF RECON,ioos:station:SCCF:11:1,2011-08-07T12:00:00Z,26.4679,-82.0631,2.086,31.46,1111122 
SCCF RECON,ioos:station:SCCF:11:1,2011-08-07T13:00:00Z,26.4679,-82.0631,2.04,32.03,1111122 
SCCF RECON,ioos:station:SCCF:11:1,2011-08-07T14:00:00Z,26.4679,-82.0631,1.909,32.22,1111122 
SCCF RECON,ioos:station:SCCF:11:1,2011-08-07T15:00:00Z,26.4679,-82.0631,1.797,32.42,1111122 
SCCF RECON,ioos:station:SCCF:11:1,2011-08-07T16:00:00Z,26.4679,-82.0631,1.66,32.6,1111122 
SCCF RECON,ioos:station:SCCF:11:1,2011-08-07T17:00:00Z,26.4679,-82.0631,1.54,32.62,1111122 
SCCF RECON,ioos:station:SCCF:11:1,2011-08-07T18:00:00Z,26.4679,-82.0631,1.44,32.72,1111122 
SCCF RECON,ioos:station:SCCF:11:1,2011-08-07T19:00:00Z,26.4679,-82.0631,1.366,32.75,1111122 
SCCF RECON,ioos:station:SCCF:11:1,2011-08-07T20:00:00Z,26.4679,-82.0631,1.348,32.7,1111122 
SCCF RECON,ioos:station:SCCF:11:1,2011-08-07T21:00:00Z,26.4679,-82.0631,1.42,32.74,1111122 
SCCF RECON,ioos:station:SCCF:11:1,2011-08-07T22:00:00Z,26.4679,-82.0631,1.54,32.63,1111122 
SCCF RECON,ioos:station:SCCF:11:1,2011-08-07T23:00:00Z,26.4679,-82.0631,1.64,32.65,1111122 
SCCF RECON,ioos:station:SCCF:11:1,2011-08-08T00:00:00Z,26.4679,-82.0631,1.717,32.63,1111122 
SCCF RECON,ioos:station:SCCF:11:1,2011-08-08T01:00:00Z,26.4679,-82.0631,1.807,32.2,1111122 
SCCF RECON,ioos:station:SCCF:11:1,2011-08-08T02:00:00Z,26.4679,-82.0631,1.83,31.7,1111122 
SCCF RECON,ioos:station:SCCF:11:1,2011-08-08T03:00:00Z,26.4679,-82.0631,1.85,30.8,1111122 
SCCF RECON,ioos:station:SCCF:11:1,2011-08-08T04:00:00Z,26.4679,-82.0631,1.78,31.99,1111122 
SCCF RECON,ioos:station:SCCF:11:1,2011-08-08T05:00:00Z,26.4679,-82.0631,1.77,32.02,1111122 
SCCF RECON,ioos:station:SCCF:11:1,2011-08-08T06:00:00Z,26.4679,-82.0631,1.78,31.89,1111122 
SCCF RECON,ioos:station:SCCF:11:1,2011-08-08T07:00:00Z,26.4679,-82.0631,1.82,32.11,1111122 
SCCF RECON,ioos:station:SCCF:11:1,2011-08-08T08:00:00Z,26.4679,-82.0631,1.86,31.84,1111122 
SCCF RECON,ioos:station:SCCF:11:1,2011-08-08T09:00:00Z,26.4679,-82.0631,1.95,31.68,1111122 
SCCF RECON,ioos:station:SCCF:11:1,2011-08-08T10:00:00Z,26.4679,-82.0631,2.094,32.19,1111122 
SCCF RECON,ioos:station:SCCF:11:1,2011-08-08T11:00:00Z,26.4679,-82.0631,2.11,31.81,1111122 
SCCF RECON,ioos:station:SCCF:11:1,2011-08-08T12:00:00Z,26.4679,-82.0631,2.11,32.47,1111122 
SCCF RECON,ioos:station:SCCF:11:1,2011-08-08T13:00:00Z,26.4679,-82.0631,2.12,32.33,1111122 
SCCF RECON,ioos:station:SCCF:11:1,2011-08-08T14:00:00Z,26.4679,-82.0631,2.098,33.51,1111122 
SCCF RECON,ioos:station:SCCF:11:1,2011-08-08T15:00:00Z,26.4679,-82.0631,2.008,31.45,1111122 
SCCF RECON,ioos:station:SCCF:11:1,2011-08-08T16:00:00Z,26.4679,-82.0631,1.854,31.63,1111122 
SCCF RECON,ioos:station:SCCF:11:1,2011-08-08T17:00:00Z,26.4679,-82.0631,1.719,31.5,1111122 
SCCF RECON,ioos:station:SCCF:11:1,2011-08-08T18:00:00Z,26.4679,-82.0631,1.58,31.61,1111122 
SCCF RECON,ioos:station:SCCF:11:1,2011-08-08T19:00:00Z,26.4679,-82.0631,1.464,31.56,1111122 
SCCF RECON,ioos:station:SCCF:11:1,2011-08-08T20:00:00Z,26.4679,-82.0631,1.38,31.79,1111122 
SCCF RECON,ioos:station:SCCF:11:1,2011-08-08T21:00:00Z,26.4679,-82.0631,1.403,31.82,1111122 
SCCF RECON,ioos:station:SCCF:11:1,2011-08-08T22:00:00Z,26.4679,-82.0631,1.399,31.79,1111122 
SCCF RECON,ioos:station:SCCF:11:1,2011-08-08T23:00:00Z,26.4679,-82.0631,1.49,32.22,1111122 
SCCF RECON,ioos:station:SCCF:11:1,2011-08-09T00:00:00Z,26.4679,-82.0631,1.626,31.9,1111122 
SCCF RECON,ioos:station:SCCF:11:1,2011-08-09T01:00:00Z,26.4679,-82.0631,1.728,31.0,1111122 
SCCF RECON,ioos:station:SCCF:11:1,2011-08-09T02:00:00Z,26.4679,-82.0631,1.76,31.37,1111122 
SCCF RECON,ioos:station:SCCF:11:1,2011-08-09T03:00:00Z,26.4679,-82.0631,1.83,31.72,1111122 
SCCF RECON,ioos:station:SCCF:11:1,2011-08-09T04:00:00Z,26.4679,-82.0631,1.862,31.29,1111122 
SCCF RECON,ioos:station:SCCF:11:1,2011-08-09T05:00:00Z,26.4679,-82.0631,1.86,31.31,1111122 
SCCF RECON,ioos:station:SCCF:11:1,2011-08-09T06:00:00Z,26.4679,-82.0631,1.86,31.33,1111122 
SCCF RECON,ioos:station:SCCF:11:1,2011-08-09T07:00:00Z,26.4679,-82.0631,1.81,31.44,1111122 
SCCF RECON,ioos:station:SCCF:11:1,2011-08-09T08:00:00Z,26.4679,-82.0631,1.8,31.51,1111122 
SCCF RECON,ioos:station:SCCF:11:1,2011-08-09T09:00:00Z,26.4679,-82.0631,1.842,31.53,1111122 
SCCF RECON,ioos:station:SCCF:11:1,2011-08-09T10:00:00Z,26.4679,-82.0631,1.92,31.49,1111122 
SCCF RECON,ioos:station:SCCF:11:1,2011-08-09T11:00:00Z,26.4679,-82.0631,1.98,31.54,1111122 
SCCF RECON,ioos:station:SCCF:11:1,2011-08-09T12:00:00Z,26.4679,-82.0631,2.06,32.47,1111122 
SCCF RECON,ioos:station:SCCF:11:1,2011-08-09T13:00:00Z,26.4679,-82.0631,2.13,32.46,1111122 
SCCF RECON,ioos:station:SCCF:11:1,2011-08-09T14:00:00Z,26.4679,-82.0631,2.18,32.53,1111122 
SCCF RECON,ioos:station:SCCF:11:1,2011-08-09T15:00:00Z,26.4679,-82.0631,2.167,32.36,1111122 
SCCF RECON,ioos:station:SCCF:11:1,2011-08-09T16:00:00Z,26.4679,-82.0631,2.053,31.72,1111122 
SCCF RECON,ioos:station:SCCF:11:1,2011-08-09T17:00:00Z,26.4679,-82.0631,1.92,31.4,1111122 
SCCF RECON,ioos:station:SCCF:11:1,2011-08-09T18:00:00Z,26.4679,-82.0631,1.78,31.3,1111122 
SCCF RECON,ioos:station:SCCF:11:1,2011-08-09T19:00:00Z,26.4679,-82.0631,1.64,31.21,1111122 
SCCF RECON,ioos:station:SCCF:11:1,2011-08-09T20:00:00Z,26.4679,-82.0631,1.513,31.24,1111122 
SCCF RECON,ioos:station:SCCF:11:1,2011-08-09T21:00:00Z,26.4679,-82.0631,1.44,31.26,1111122 
SCCF RECON,ioos:station:SCCF:11:1,2011-08-09T22:00:00Z,26.4679,-82.0631,1.407,31.11,1111122 
SCCF RECON,ioos:station:SCCF:11:1,2011-08-09T23:00:00Z,26.4679,-82.0631,1.42,31.19,1111122 
SCCF RECON,ioos:station:SCCF:11:1,2011-08-10T00:00:00Z,26.4679,-82.0631,1.484,31.25,1111122 
SCCF RECON,ioos:station:SCCF:11:1,2011-08-10T01:00:00Z,26.4679,-82.0631,1.58,31.32,1111122 
SCCF RECON,ioos:station:SCCF:11:1,2011-08-10T02:00:00Z,26.4679,-82.0631,1.65,31.29,1111122 
SCCF RECON,ioos:station:SCCF:11:1,2011-08-10T03:00:00Z,26.4679,-82.0631,1.78,31.33,1111122 
SCCF RECON,ioos:station:SCCF:11:1,2011-08-10T04:00:00Z,26.4679,-82.0631,1.9,31.38,1111122 
SCCF RECON,ioos:station:SCCF:11:1,2011-08-10T05:00:00Z,26.4679,-82.0631,1.95,30.47,1111122 
SCCF RECON,ioos:station:SCCF:11:1,2011-08-10T06:00:00Z,26.4679,-82.0631,1.9,30.54,1111122 
SCCF RECON,ioos:station:SCCF:11:1,2011-08-10T07:00:00Z,26.4679,-82.0631,1.79,31.19,1111122 
SCCF RECON,ioos:station:SCCF:11:1,2011-08-10T08:00:00Z,26.4679,-82.0631,1.706,31.25,1111122 
SCCF RECON,ioos:station:SCCF:11:1,2011-08-10T09:00:00Z,26.4679,-82.0631,1.705,31.1,1111122 
SCCF RECON,ioos:station:SCCF:11:1,2011-08-10T10:00:00Z,26.4679,-82.0631,1.79,31.19,1111122 
SCCF RECON,ioos:station:SCCF:11:1,2011-08-10T11:00:00Z,26.4679,-82.0631,1.921,31.27,1111122 
SCCF RECON,ioos:station:SCCF:11:1,2011-08-10T12:00:00Z,26.4679,-82.0631,2.02,31.3,1111122 
SCCF RECON,ioos:station:SCCF:11:1,2011-08-10T13:00:00Z,26.4679,-82.0631,2.119,31.31,1111122 
SCCF RECON,ioos:station:SCCF:11:1,2011-08-10T14:00:00Z,26.4679,-82.0631,2.165,31.19,1111122 
SCCF RECON,ioos:station:SCCF:11:1,2011-08-10T15:00:00Z,26.4679,-82.0631,2.24,31.46,1111122 
SCCF RECON,ioos:station:SCCF:11:1,2011-08-10T16:00:00Z,26.4679,-82.0631,2.111,30.89,1111122 
SCCF RECON,ioos:station:SCCF:11:1,2011-08-10T17:00:00Z,26.4679,-82.0631,2.02,30.58,1111122 
SCCF RECON,ioos:station:SCCF:11:1,2011-08-10T18:00:00Z,26.4679,-82.0631,1.86,30.54,1111122 
SCCF RECON,ioos:station:SCCF:11:1,2011-08-10T19:00:00Z,26.4679,-82.0631,1.712,30.23,1111122 
SCCF RECON,ioos:station:SCCF:11:1,2011-08-10T20:00:00Z,26.4679,-82.0631,1.579,30.24,1111122 
SCCF RECON,ioos:station:SCCF:11:1,2011-08-10T21:00:00Z,26.4679,-82.0631,1.468,30.3,1111122 
SCCF RECON,ioos:station:SCCF:11:1,2011-08-10T22:00:00Z,26.4679,-82.0631,1.38,29.85,1111122 
SCCF RECON,ioos:station:SCCF:11:1,2011-08-10T23:00:00Z,26.4679,-82.0631,1.34,29.84,1111122 
SCCF RECON,ioos:station:SCCF:11:1,2011-08-11T00:00:00Z,26.4679,-82.0631,1.324,30.25,1111122 
SCCF RECON,ioos:station:SCCF:11:1,2011-08-11T01:00:00Z,26.4679,-82.0631,1.37,30.18,1111122 
SCCF RECON,ioos:station:SCCF:11:1,2011-08-11T02:00:00Z,26.4679,-82.0631,1.534,30.76,1111122 
SCCF RECON,ioos:station:SCCF:11:1,2011-08-11T03:00:00Z,26.4679,-82.0631,1.707,31.1,1111122 
SCCF RECON,ioos:station:SCCF:11:1,2011-08-11T04:00:00Z,26.4679,-82.0631,1.84,30.83,1111122 
SCCF RECON,ioos:station:SCCF:11:1,2011-08-11T05:00:00Z,26.4679,-82.0631,1.89,29.37,1111122 
SCCF RECON,ioos:station:SCCF:11:1,2011-08-11T06:00:00Z,26.4679,-82.0631,1.86,29.42,1111122 
SCCF RECON,ioos:station:SCCF:11:1,2011-08-11T07:00:00Z,26.4679,-82.0631,1.75,30.5,1111122 
SCCF RECON,ioos:station:SCCF:11:1,2011-08-11T08:00:00Z,26.4679,-82.0631,1.699,30.34,1111122 
SCCF RECON,ioos:station:SCCF:11:1,2011-08-11T09:00:00Z,26.4679,-82.0631,1.672,30.31,1111122 
SCCF RECON,ioos:station:SCCF:11:1,2011-08-11T10:00:00Z,26.4679,-82.0631,1.71,30.51,1111122 
SCCF RECON,ioos:station:SCCF:11:1,2011-08-11T11:00:00Z,26.4679,-82.0631,1.8,30.4,1111122 
SCCF RECON,ioos:station:SCCF:11:1,2011-08-11T12:00:00Z,26.4679,-82.0631,1.932,30.11,1111122 
SCCF RECON,ioos:station:SCCF:11:1,2011-08-11T13:00:00Z,26.4679,-82.0631,2.04,30.27,1111122 
SCCF RECON,ioos:station:SCCF:11:1,2011-08-11T14:00:00Z,26.4679,-82.0631,2.108,29.97,1111122 
SCCF RECON,ioos:station:SCCF:11:1,2011-08-11T15:00:00Z,26.4679,-82.0631,2.17,29.86,1111122 
SCCF RECON,ioos:station:SCCF:11:1,2011-08-11T16:00:00Z,26.4679,-82.0631,2.175,29.91,1111122 
SCCF RECON,ioos:station:SCCF:11:1,2011-08-11T17:00:00Z,26.4679,-82.0631,2.092,30.06,1111122 
SCCF RECON,ioos:station:SCCF:11:1,2011-08-11T18:00:00Z,26.4679,-82.0631,1.95,30.22,1111122 